Location: Poughquag
(41.6090°N, 73.6820°W)
Time: 04:44:52
(UTC-04:00)

Tianhe-1 - Visible Passes

Search period start: 15 May 2021 00:00
Search period end: 25 May 2021 00:00
Orbit: 359 x 385 km, 41.5° (Epoch: 14 May)

Date Brightness Start Highest point End Pass type
(mag) Time Alt. Az. Time Alt. Az. Time Alt. Az.
15 May 0.9 21:58:00 10° WSW 22:01:06 64° SSE 22:01:07 64° SSE visible
16 May 1.4 20:54:33 10° SW 20:57:31 43° SSE 21:00:33 10° E visible
16 May 2.2 22:30:51 10° W 22:32:57 38° W 22:32:57 38° W visible
17 May 0.9 21:27:15 10° WSW 21:30:22 78° S 21:32:32 18° E visible
17 May 3.7 23:03:47 10° W 23:04:30 16° W 23:04:30 16° W visible
18 May 0.9 22:00:09 10° W 22:03:17 90° SW 22:03:55 54° E visible
19 May 1.0 20:56:31 10° W 20:59:38 87° S 21:02:47 10° E visible
19 May 2.2 22:33:05 10° W 22:35:11 38° W 22:35:11 38° W visible
20 May 0.9 21:29:26 10° W 21:32:33 84° S 21:34:26 22° E visible
20 May 4.0 23:06:06 10° W 23:06:23 12° W 23:06:23 12° W visible
21 May 1.2 22:02:21 10° W 22:05:24 51° SSW 22:05:34 50° S visible
22 May 1.0 20:58:41 10° W 21:01:47 72° SSW 21:04:45 11° ESE visible
22 May 3.3 22:35:31 10° W 22:36:42 17° WSW 22:36:42 17° WSW visible
23 May 1.8 21:31:39 10° W 21:34:34 37° SSW 21:35:52 24° SSE visible
24 May 3.2 22:05:08 10° WSW 22:07:00 16° SW 22:07:00 16° SW visible
